• In Belarus
  • List of Countries
  • For 7 days
  • Water Temperature
  • Satellite Maps
  • Weather Map
  • Weather Widgets
  • user-avatar
    Login

    Hourly Weather Yerevan

    Today, 17 October, Wednesday

    Time Temperature Precipitation Wind Pressure Humidity
    00:00 +15°C° 0 mm 2 mps 695 mmHg 67%
    01:00 +15°C° 0 mm 1 mps 695 mmHg 69%
    02:00 +14°C° 0 mm 1 mps 695 mmHg 71%
    03:00 +14°C° 0 mm 1 mps 695 mmHg 72%
    04:00 +13°C° 0 mm 1 mps 694 mmHg 74%
    05:00 +13°C° 0 mm 1 mps 694 mmHg 76%
    06:00 +13°C° 0 mm 1 mps 694 mmHg 77%
    07:00 +15°C° 0 mm 1 mps 695 mmHg 68%
    08:00 +18°C° 0 mm 1 mps 695 mmHg 59%
    09:00 +20°C° 0 mm 1 mps 695 mmHg 50%
    10:00 +21°C° 0 mm 1 mps 695 mmHg 46%
    11:00 +22°C° 0 mm 1 mps 695 mmHg 42%
    12:00 +23°C° 0 mm 2 mps 694 mmHg 38%
    13:00 +23°C° 0 mm 2 mps 694 mmHg 37%
    14:00 +24°C° 0 mm 2 mps 694 mmHg 36%
    15:00 +24°C° 0 mm 2 mps 693 mmHg 35%
    16:00 +22°C° 0 mm 1 mps 693 mmHg 41%
    17:00 +20°C° 0 mm 1 mps 693 mmHg 47%
    18:00 +18°C° 0 mm 1 mps 693 mmHg 53%
    19:00 +18°C° 0 mm 1 mps 693 mmHg 56%
    20:00 +16°C° 0 mm 1 mps 693 mmHg 60%
    21:00 +15°C° 0 mm 1 mps 693 mmHg 63%
    22:00 +15°C° 0 mm 1 mps 693 mmHg 65%
    23:00 +15°C° 0 mm 1 mps 693 mmHg 68%

    Tomorrow, 18 October, Thursday

    Time Temperature Precipitation Wind Pressure Humidity
    00:00 +13°C° 0 mm 0 mps 693 mmHg 70%
    01:00 +13°C° 0 mm 0 mps 693 mmHg 71%
    02:00 +12°C° 0 mm 0 mps 693 mmHg 72%
    03:00 +12°C° 0 mm 0 mps 692 mmHg 73%
    04:00 +12°C° 0 mm 0 mps 692 mmHg 74%
    05:00 +11°C° 0 mm 0 mps 692 mmHg 74%
    06:00 +11°C° 0 mm 0 mps 692 mmHg 75%
    07:00 +14°C° 0 mm 0 mps 692 mmHg 65%
    08:00 +18°C° 0 mm 1 mps 693 mmHg 55%
    09:00 +20°C° 0 mm 1 mps 693 mmHg 45%
    10:00 +22°C° 0 mm 1 mps 693 mmHg 40%
    11:00 +23°C° 0 mm 1 mps 693 mmHg 36%
    12:00 +24°C° 0 mm 2 mps 693 mmHg 31%
    13:00 +24°C° 0 mm 2 mps 692 mmHg 30%
    14:00 +25°C° 0 mm 2 mps 692 mmHg 28%
    15:00 +25°C° 0 mm 1 mps 692 mmHg 27%
    16:00 +23°C° 0 mm 1 mps 691 mmHg 32%
    17:00 +21°C° 0 mm 1 mps 691 mmHg 37%
    18:00 +19°C° 0 mm 1 mps 691 mmHg 42%
    19:00 +18°C° 0 mm 1 mps 691 mmHg 44%
    20:00 +18°C° 0 mm 1 mps 692 mmHg 47%
    21:00 +16°C° 0 mm 1 mps 692 mmHg 49%
    22:00 +16°C° 0 mm 1 mps 692 mmHg 51%
    23:00 +15°C° 0 mm 1 mps 692 mmHg 53%

    Day after tomorrow, 19 October, Friday

    Time Temperature Precipitation Wind Pressure Humidity
    00:00 +15°C° 0 mm 1 mps 692 mmHg 55%
    01:00 +15°C° 0 mm 1 mps 692 mmHg 57%
    02:00 +14°C° 0 mm 1 mps 692 mmHg 59%
    03:00 +14°C° 0 mm 1 mps 692 mmHg 61%
    04:00 +13°C° 0 mm 1 mps 692 mmHg 62%
    05:00 +13°C° 0 mm 1 mps 692 mmHg 63%
    06:00 +13°C° 0 mm 1 mps 692 mmHg 64%
    07:00 +15°C° 0 mm 1 mps 692 mmHg 54%
    08:00 +19°C° 0 mm 1 mps 693 mmHg 45%
    09:00 +21°C° 0 mm 1 mps 693 mmHg 35%
    10:00 +21°C° 0 mm 2 mps 693 mmHg 33%
    11:00 +23°C° 0 mm 2 mps 693 mmHg 30%
    12:00 +25°C° 0 mm 2 mps 693 mmHg 28%
    13:00 +25°C° 0 mm 2 mps 692 mmHg 28%
    14:00 +25°C° 0 mm 2 mps 692 mmHg 28%
    15:00 +25°C° 0 mm 2 mps 692 mmHg 27%
    16:00 +24°C° 0 mm 2 mps 692 mmHg 32%
    17:00 +22°C° 0 mm 1 mps 691 mmHg 36%
    18:00 +20°C° 0 mm 1 mps 691 mmHg 41%
    19:00 +19°C° 0 mm 1 mps 691 mmHg 42%
    20:00 +19°C° 0 mm 1 mps 692 mmHg 44%
    21:00 +18°C° 0 mm 1 mps 692 mmHg 45%
    22:00 +18°C° 0 mm 1 mps 692 mmHg 46%
    23:00 +18°C° 0 mm 1 mps 692 mmHg 46%

    20 October, Saturday

    Time Temperature Precipitation Wind Pressure Humidity
    00:00 +16°C° 0 mm 1 mps 692 mmHg 47%
    01:00 +16°C° 0 mm 1 mps 692 mmHg 48%
    02:00 +16°C° 0 mm 1 mps 691 mmHg 49%
    03:00 +15°C° 0 mm 1 mps 691 mmHg 50%
    04:00 +15°C° 0 mm 1 mps 691 mmHg 51%
    05:00 +15°C° 0 mm 1 mps 691 mmHg 52%
    06:00 +14°C° 0 mm 1 mps 691 mmHg 54%
    07:00 +18°C° 0 mm 1 mps 692 mmHg 48%
    08:00 +20°C° 0 mm 1 mps 692 mmHg 43%
    09:00 +21°C° 0 mm 2 mps 692 mmHg 38%
    10:00 +23°C° 0 mm 2 mps 692 mmHg 35%
    11:00 +24°C° 0 mm 2 mps 692 mmHg 33%
    12:00 +25°C° 0 mm 2 mps 692 mmHg 30%
    13:00 +25°C° 0.1 mm 2 mps 691 mmHg 30%
    14:00 +26°C° 0.1 mm 2 mps 691 mmHg 30%
    15:00 +26°C° 0.1 mm 2 mps 690 mmHg 30%
    16:00 +24°C° 0.1 mm 2 mps 690 mmHg 33%
    17:00 +21°C° 0.1 mm 2 mps 690 mmHg 37%
    18:00 +21°C° 0.1 mm 1 mps 690 mmHg 41%
    19:00 +20°C° 0.1 mm 1 mps 690 mmHg 42%
    20:00 +20°C° 0.1 mm 1 mps 691 mmHg 43%
    21:00 +20°C° 0.1 mm 1 mps 691 mmHg 44%
    22:00 +19°C° 0.1 mm 1 mps 691 mmHg 46%
    23:00 +19°C° 0.1 mm 1 mps 690 mmHg 47%

    21 October, Sunday

    Time Temperature Precipitation Wind Pressure Humidity
    00:00 +19°C° 0.1 mm 1 mps 690 mmHg 48%
    01:00 +18°C° 0.1 mm 1 mps 690 mmHg 50%
    02:00 +18°C° 0.1 mm 1 mps 690 mmHg 51%
    03:00 +18°C° 0.1 mm 1 mps 690 mmHg 52%
    04:00 +16°C° 0.1 mm 1 mps 690 mmHg 53%
    05:00 +16°C° 0.1 mm 1 mps 690 mmHg 55%
    06:00 +16°C° 0.1 mm 1 mps 690 mmHg 56%
    07:00 +18°C° 0.2 mm 1 mps 690 mmHg 52%
    08:00 +20°C° 0.2 mm 1 mps 690 mmHg 49%
    09:00 +20°C° 0.2 mm 2 mps 690 mmHg 45%
    10:00 +20°C° 0.2 mm 2 mps 690 mmHg 44%
    11:00 +21°C° 0.2 mm 2 mps 690 mmHg 43%
    12:00 +21°C° 0.2 mm 2 mps 689 mmHg 42%
    13:00 +23°C° 0.1 mm 2 mps 689 mmHg 42%
    14:00 +23°C° 0.1 mm 2 mps 689 mmHg 41%
    15:00 +22°C° 0.1 mm 3 mps 688 mmHg 40%
    16:00 +21°C° 0.1 mm 2 mps 688 mmHg 44%
    17:00 +20°C° 0.1 mm 2 mps 688 mmHg 47%
    18:00 +18°C° 0.1 mm 2 mps 688 mmHg 50%
    19:00 +18°C° 0.1 mm 2 mps 688 mmHg 51%
    20:00 +18°C° 0.1 mm 2 mps 688 mmHg 52%
    21:00 +19°C° 0.1 mm 1 mps 688 mmHg 53%
    22:00 +18°C° 0.1 mm 1 mps 688 mmHg 55%
    23:00 +18°C° 0.1 mm 1 mps 688 mmHg 56%

    22 October, Monday

    Time Temperature Precipitation Wind Pressure Humidity
    00:00 +16°C° 0.1 mm 1 mps 688 mmHg 58%
    01:00 +16°C° 0.1 mm 1 mps 688 mmHg 60%
    02:00 +15°C° 0.1 mm 1 mps 688 mmHg 62%
    03:00 +15°C° 0.1 mm 1 mps 687 mmHg 63%
    04:00 +15°C° 0 mm 1 mps 687 mmHg 64%
    05:00 +14°C° 0 mm 1 mps 687 mmHg 66%
    06:00 +14°C° 0 mm 1 mps 687 mmHg 67%
    07:00 +16°C° 0 mm 1 mps 688 mmHg 61%
    08:00 +18°C° 0 mm 2 mps 688 mmHg 55%
    09:00 +19°C° 0 mm 2 mps 689 mmHg 48%
    10:00 +20°C° 0 mm 2 mps 689 mmHg 45%
    11:00 +21°C° 0 mm 2 mps 689 mmHg 42%
    12:00 +23°C° 0 mm 2 mps 689 mmHg 39%
    13:00 +23°C° 0.1 mm 2 mps 689 mmHg 39%
    14:00 +22°C° 0.1 mm 3 mps 688 mmHg 38%
    15:00 +24°C° 0.1 mm 3 mps 688 mmHg 37%
    16:00 +21°C° 0.1 mm 2 mps 689 mmHg 42%
    17:00 +19°C° 0.1 mm 2 mps 689 mmHg 46%
    18:00 +18°C° 0.1 mm 2 mps 689 mmHg 51%
    19:00 +17°C° 0.1 mm 2 mps 689 mmHg 52%
    20:00 +17°C° 0.1 mm 2 mps 690 mmHg 53%
    21:00 +16°C° 0.1 mm 1 mps 690 mmHg 55%
    22:00 +16°C° 0 mm 1 mps 690 mmHg 56%
    23:00 +16°C° 0 mm 1 mps 690 mmHg 57%
    Show more